Date,TemperatureHighF,TemperatureAvgF,TemperatureLowF,DewpointHighF,DewpointAvgF,DewpointLowF,HumidityHigh,HumidityAvg,HumidityLow,PressureMaxIn,PressureMinIn,WindSpeedMaxMPH,WindSpeedAvgMPH,GustSpeedMaxMPH,PrecipitationSumIn
2013-2-1,33,28,20,18,11,4,72,50,36,30.26,29.64,18,5,29,0.00
2013-2-2,43,23,14,14,8,3,71,53,38,30.44,30.15,9,2,15,0.00
2013-2-3,27,23,18,23,20,14,93,88,62,30.16,29.71,5,1,10,0.00
2013-2-4,30,23,17,21,12,6,93,66,39,29.93,29.70,13,4,23,0.00
2013-2-5,27,23,20,22,16,10,93,75,64,30.00,29.91,3,1,7,0.00
2013-2-6,39,29,22,28,19,5,94,68,41,30.28,29.90,10,2,17,0.02
2013-2-7,33,23,13,13,7,4,80,50,32,30.51,30.28,7,1,13,0.00
2013-2-8,32,28,17,31,25,12,95,90,68,30.46,29.55,21,3,25,0.02
2013-2-9,23,18,13,22,15,4,93,85,65,30.18,29.52,19,5,31,0.00
2013-2-10,43,20,3,32,9,0,93,64,29,30.37,30.18,8,2,12,0.20
2013-2-11,45,32,10,44,30,8,96,92,79,30.33,29.60,8,1,13,0.23
2013-2-12,44,38,26,41,30,24,96,74,54,29.88,29.61,16,4,24,0.00
2013-2-13,45,32,20,28,25,19,94,76,47,29.86,29.63,9,1,15,0.00
2013-2-14,47,34,24,29,24,20,94,69,37,29.96,29.61,9,2,15,0.00
2013-2-15,53,36,23,37,30,21,95,82,50,29.95,29.88,9,1,17,0.00
2013-2-16,37,33,27,34,28,19,95,84,58,29.92,29.68,12,2,24,0.03
2013-2-17,29,21,16,24,11,1,94,68,40,29.70,29.38,37,8,38,0.01
2013-2-18,32,21,13,4,2,-2,56,43,27,30.16,29.69,22,6,30,0.01
2013-2-19,49,35,17,42,25,2,96,70,48,30.17,29.62,7,1,14,0.32
2013-2-20,41,32,25,40,20,10,96,63,41,29.79,29.57,28,7,29,0.00
2013-2-21,35,27,22,16,14,11,73,58,43,30.20,29.78,24,6,29,0.00
2013-2-22,42,30,19,26,22,16,93,72,47,30.39,30.20,8,2,13,0.00
2013-2-23,39,33,25,33,29,24,95,87,73,30.34,29.91,4,1,8,0.11
2013-2-24,36,33,31,34,32,29,95,95,94,29.91,29.70,8,2,16,0.85
2013-2-25,41,34,28,35,31,27,95,89,71,30.25,29.90,6,1,10,0.13
2013-2-26,46,36,28,37,30,26,95,79,48,30.36,30.14,5,1,7,0.00
2013-2-27,42,39,36,41,38,32,96,95,87,30.15,29.58,10,3,18,1.27
2013-2-28,47,37,29,41,35,27,96,92,73,29.66,29.52,7,1,8,0.00